Weather History for Marion, VA

Change the Weather History Date:

Monday, July 29, 2013

  Actual Average (KGEV) Record (KGEV)
Temperature  
Mean Temperature 65 °F -  
Max Temperature 76 °F 79 °F 89 °F (1993)
Min Temperature 54 °F 59 °F 49 °F (1983)
Growing Degree Days 15 (Base 50)    
Moisture  
Dew Point 56 °F    
Average Humidity 76    
Maximum Humidity 100    
Minimum Humidity 44    
Precipitation  
Precipitation 0.00 in - - ()
Sea Level Pressure  
Sea Level Pressure 30.23 in    
Wind  
Wind Speed 2 mph (West)    
Max Wind Speed 9 mph    
Max Gust Speed 16 mph    
Visibility 9 miles    
Events      
Averages and records for this station are not official NWS values.
T = Trace of Precipitation, MM = Missing Value Source: NWS Daily Summary

Daily Weather History Graph

Daily Weather History Graph

Search for Another Location

Airport:

Trip Planner

Search our weather history database for the weather conditions in past years. The results will help you decide how hot, cold, wet, or windy it might be!

Date:

Astronomy

Jul. 29, 2013 Rise Set
Actual Time 6:28 AM EDT 8:34 PM EDT
Civil Twilight 5:59 AM EDT 9:03 PM EDT
Nautical Twilight 5:24 AM EDT 9:38 PM EDT
Astronomical Twilight 4:46 AM EDT 10:16 PM EDT
Moon 12:08 AM EDT (7/29) 1:56 PM EDT (7/29)
Length of Visible Light 15h 03m
Length of Day
14h 06m
Waning Gibbous, 51% of the Moon is Illuminated
Jul 29
Waning Gibbous
Jul 29
Last Quarter
Aug 6
New
Aug 14
First Quarter
Aug 20
Full

Hourly Weather History & Observations

Time (EDT) Temp. Dew Point Humidity Pressure Visibility Wind Dir Wind Speed Gust Speed Precip Events Conditions
12:15 AM 61.5 °F 61.2 °F 99% 30.16 in 10.0 mi Calm Calm - N/A   Clear
12:35 AM 60.4 °F 60.4 °F 100% 30.16 in 10.0 mi Calm Calm - N/A   Clear
12:55 AM 60.1 °F 60.1 °F 100% 30.16 in 10.0 mi Calm Calm - N/A   Clear
1:15 AM 60.1 °F 60.1 °F 100% 30.16 in 10.0 mi Calm Calm - N/A   Clear
1:35 AM 59.4 °F 59.4 °F 100% 30.16 in 7.0 mi Calm Calm - N/A   Clear
1:55 AM 59.0 °F 59.0 °F 100% 30.17 in 7.0 mi Calm Calm - N/A   Clear
2:15 AM 58.5 °F 58.5 °F 100% 30.17 in 5.0 mi Calm Calm - N/A   Clear
2:35 AM 57.7 °F 57.7 °F 100% 30.16 in 7.0 mi Calm Calm - N/A   Clear
2:55 AM 57.6 °F 57.6 °F 100% 30.16 in 5.0 mi Calm Calm - N/A   Clear
3:15 AM 57.6 °F 57.6 °F 100% 30.16 in 7.0 mi Calm Calm - N/A   Clear
3:55 AM 56.7 °F 56.7 °F 100% 30.17 in 1.8 mi Calm Calm - N/A   Mist
4:15 AM 56.3 °F 56.3 °F 100% 30.17 in 1.8 mi Calm Calm - N/A   Mist
4:35 AM 56.1 °F 56.1 °F 100% 30.17 in 10.0 mi Calm Calm - N/A   Scattered Clouds
4:55 AM 55.8 °F 55.8 °F 100% 30.17 in 7.0 mi Calm Calm - N/A   Clear
5:15 AM 55.4 °F 55.4 °F 100% 30.18 in 10.0 mi Calm Calm - N/A   Scattered Clouds
5:35 AM 55.2 °F 55.2 °F 100% 30.18 in 0.8 mi Calm Calm - N/A   Mostly Cloudy
5:55 AM 54.9 °F 54.9 °F 100% 30.18 in 5.0 mi Calm Calm - N/A   Scattered Clouds
6:15 AM 54.5 °F 54.5 °F 100% 30.19 in 4.0 mi Calm Calm - N/A   Clear
6:35 AM 54.7 °F 54.7 °F 100% 30.20 in 10.0 mi Calm Calm - N/A   Clear
6:55 AM 54.7 °F 54.7 °F 100% 30.21 in 5.0 mi SW 3.5 mph - N/A   Scattered Clouds
7:15 AM 56.1 °F 56.1 °F 100% 30.21 in 5.0 mi West 3.5 mph - N/A   Scattered Clouds
7:35 AM 57.6 °F 57.6 °F 100% 30.22 in 7.0 mi Calm Calm - N/A   Scattered Clouds
7:55 AM 59.4 °F 59.4 °F 100% 30.22 in 10.0 mi West 3.5 mph - N/A   Clear
8:15 AM 61.2 °F 60.8 °F 99% 30.23 in 10.0 mi Calm Calm - N/A   Clear
8:35 AM 63.5 °F 61.9 °F 94% 30.23 in 10.0 mi Calm Calm - N/A   Clear
8:55 AM 64.9 °F 61.2 °F 88% 30.23 in 10.0 mi Calm Calm - N/A   Clear
9:15 AM 66.2 °F 58.6 °F 77% 30.23 in 10.0 mi Calm Calm - N/A   Clear
9:35 AM 67.6 °F 55.6 °F 65% 30.24 in 10.0 mi NW 4.6 mph - N/A   Clear
9:55 AM 67.3 °F 54.3 °F 63% 30.24 in 10.0 mi NW 6.9 mph - N/A   Clear
10:15 AM 67.8 °F 55.0 °F 64% 30.24 in 10.0 mi NNW 5.8 mph - N/A   Clear
10:35 AM 68.4 °F 55.0 °F 62% 30.24 in 10.0 mi Calm Calm - N/A   Scattered Clouds
10:55 AM 69.4 °F 53.6 °F 57% 30.24 in 10.0 mi West 5.8 mph - N/A   Clear
11:15 AM 70.2 °F 54.3 °F 57% 30.24 in 10.0 mi NNW 4.6 mph - N/A   Clear
11:35 AM 70.9 °F 53.4 °F 54% 30.24 in 10.0 mi WNW 9.2 mph - N/A   Clear
11:55 AM 72.1 °F 54.3 °F 53% 30.25 in 10.0 mi West 9.2 mph - N/A   Clear
12:15 PM 72.1 °F 53.6 °F 52% 30.25 in 10.0 mi SW 3.5 mph - N/A   Scattered Clouds
12:35 PM 73.0 °F 53.6 °F 50% 30.25 in 10.0 mi SSW 5.8 mph - N/A   Scattered Clouds
12:55 PM 72.9 °F 53.6 °F 51% 30.25 in 10.0 mi SW 6.9 mph - N/A   Scattered Clouds
1:15 PM 73.6 °F 54.0 °F 50% 30.25 in 10.0 mi South 8.1 mph - N/A   Scattered Clouds
1:35 PM 72.5 °F 53.6 °F 51% 30.25 in 10.0 mi SW 8.1 mph - N/A   Scattered Clouds
1:55 PM 74.5 °F 56.8 °F 54% 30.24 in 10.0 mi West 3.5 mph - N/A   Mostly Cloudy
2:15 PM 73.6 °F 55.6 °F 53% 30.24 in 10.0 mi SSW 3.5 mph - N/A   Mostly Cloudy
2:35 PM 75.0 °F 55.9 °F 51% 30.24 in 10.0 mi WSW 9.2 mph - N/A   Mostly Cloudy
2:55 PM 76.1 °F 56.3 °F 50% 30.24 in 10.0 mi South 4.6 mph - N/A   Mostly Cloudy
3:15 PM 75.7 °F 54.7 °F 48% 30.24 in 10.0 mi WSW 8.1 mph 16.1 mph N/A   Mostly Cloudy
3:35 PM 75.6 °F 55.0 °F 49% 30.23 in 10.0 mi WSW 6.9 mph - N/A   Scattered Clouds
3:55 PM 76.3 °F 55.8 °F 49% 30.23 in 10.0 mi WSW 9.2 mph - N/A   Scattered Clouds
4:15 PM 76.3 °F 56.5 °F 50% 30.23 in 10.0 mi SW 6.9 mph - N/A   Scattered Clouds
4:35 PM 75.6 °F 55.0 °F 49% 30.23 in 10.0 mi WNW 5.8 mph - N/A   Scattered Clouds
4:55 PM 75.9 °F 53.8 °F 46% 30.23 in 10.0 mi WNW 5.8 mph - N/A   Scattered Clouds
5:15 PM 76.1 °F 54.9 °F 48% 30.22 in 10.0 mi WNW 9.2 mph - N/A   Clear
5:35 PM 75.4 °F 53.6 °F 47% 30.23 in 10.0 mi NW 9.2 mph - N/A   Clear
5:55 PM 75.4 °F 54.5 °F 48% 30.23 in 10.0 mi WNW 4.6 mph - N/A   Clear
6:15 PM 75.2 °F 53.4 °F 47% 30.23 in 10.0 mi West 4.6 mph - N/A   Clear
6:35 PM 75.2 °F 53.4 °F 47% 30.24 in 10.0 mi WNW 5.8 mph - N/A   Clear
6:55 PM 74.7 °F 51.6 °F 44% 30.24 in 10.0 mi NW 5.8 mph - N/A   Clear
7:15 PM 73.9 °F 53.8 °F 49% 30.25 in 10.0 mi WNW 5.8 mph - N/A   Clear
7:35 PM 72.5 °F 54.7 °F 53% 30.26 in 10.0 mi WNW 5.8 mph - N/A   Clear
7:55 PM 71.4 °F 55.2 °F 57% 30.27 in 10.0 mi Calm Calm - N/A   Clear
8:15 PM 70.0 °F 55.9 °F 61% 30.27 in 10.0 mi Calm Calm - N/A   Clear
8:35 PM 68.0 °F 57.4 °F 69% 30.26 in 10.0 mi Calm Calm - N/A   Clear
8:55 PM 66.9 °F 58.3 °F 74% 30.28 in 10.0 mi Calm Calm - N/A   Clear
9:15 PM 64.8 °F 58.6 °F 81% 30.28 in 10.0 mi Calm Calm - N/A   Clear
9:35 PM 63.9 °F 59.2 °F 85% 30.30 in 10.0 mi Calm Calm - N/A   Clear
9:55 PM 63.0 °F 59.0 °F 87% 30.31 in 10.0 mi Calm Calm - N/A   Clear
10:15 PM 61.7 °F 59.0 °F 91% 30.32 in 10.0 mi Calm Calm - N/A   Clear
10:35 PM 61.3 °F 59.4 °F 93% 30.33 in 10.0 mi Calm Calm - N/A   Clear
10:55 PM 61.0 °F 59.9 °F 96% 30.33 in 10.0 mi Calm Calm - N/A   Clear
11:15 PM 59.9 °F 59.9 °F 100% 30.32 in 10.0 mi Calm Calm - N/A   Clear
11:35 PM 59.9 °F 59.9 °F 100% 30.32 in 10.0 mi Calm Calm - N/A   Clear
11:55 PM 58.8 °F 58.8 °F 100% 30.32 in 10.0 mi Calm Calm - N/A   Clear